Погода в Марфовке

Россия / Республика Крым     45°11′53″N   36°05′26″E
темп.,
°C
ветер,
м/с
пор.,
м/с
влажн.,
%
обл.,
%
осадки,
мм/ч
давл.,
гПа
погр.,
м
23 октября, сб
сб2300:00+13ююз359685 0.0 101993
03:00+13ююз349519 0.0 101877
06:00+13ююз3695100 0.0 1018106
09:00+15ююз4686100 0.0 1018337
12:00+18юз5564100 0.0 1018644
15:00+19юз4462100 0.0 1017717
18:00+15ююз4686100 0.0 1018150
21:00+15зюз3686100 0.0 1018146
24 октября, вс
вс2400:00+13с71083100 0.0 1020415
03:00+12ссв4791100 0.3 1020382
06:00+12ссв4888100 0.2 1020462
09:00+12с4776100 0.3 1021520
12:00+11ссз4766100 1.4 10221249
15:00+11с5858100 2.0 10221410
18:00+10ссз4751100 0.0 1023347
21:00+9сз37555 0.0 1025142
25 октября, пн
пн2500:00+9ссз510555 0.0 1026269
03:00+8ссз597014 0.1 1026281
06:00+8ссз6961100 0.1 1028828
09:00+8ссз685686 0.1 10291469
12:00+9ссз675115 0.0 10301440
15:00+8с56515 0.0 10311204
18:00+6с35575 0.0 1032130
21:00+5ссв22564 0.0 103213
26 октября, вт
вт2600:00+5св11542 0.0 103210
03:00+4св22584 0.0 103212
06:00+4св33635 0.0 103225
09:00+7всв47575 0.0 1032634
12:00+9всв67420 0.0 1032977
15:00+9всв67410 0.0 1030884
18:00+7всв48520 0.0 1030246
21:00+6в49560 0.0 1029245
27 октября, ср
ср2700:00+6в49600 0.0 1028242
03:00+5в511650 0.0 1027283
06:00+5в49700 0.0 1026228
09:00+7в57630 0.0 1026320
12:00+11в32490 0.0 1024535
15:00+13вюв21460 0.0 1022731
18:00+9вюв22620 0.0 102316
21:00+8в01680 0.0 102310